Header for Extended Forecast Station List Page

Search by: ID | Name | Date | Parm | Value | Avg | % Avg
Sort by: ID | Name | Date | Parm | Value | Avg | % Avg

Enter search or view all records.

Click on id for station plot
#IDNameDateParmValueAvg% Avg
0ABOM8CLARK FORK-ABOVE MISSOULA02-18-2020DISCHARGE (KAF)12601123112
1AFRI1SNAKE-AMERICAN FALLS RESERVOIR02-18-2020INFLOW (KAF)29342277129
2ALFW1PEND OREILLE-ALBENI FALLS DAM02-18-2020INFLOW (KAF)8784925495
3ALPW4SNAKE-NEAR ALPINE02-18-2020DISCHARGE (KAF)14891232121
4ANAW1SNAKE-NEAR ANATONE02-18-2020DISCHARGE (KAF)104621225885
5ANTI1HENRYS FORK-AT ST. ANTHONY02-18-2020DISCHARGE (KAF)649594109
6ARAI1SF BOISE-ANDERSON RANCH DAM02-18-2020INFLOW (KAF)36943285
7ARDW1ENTIAT-NEAR ARDENVOIR02-18-2020DISCHARGE (KAF)138135102
8BELM8CLARK FORK-BELOW MISSOULA02-18-2020DISCHARGE (KAF)22172060108
9BERO3MALHEUR-AGENCY VALLEY DAM02-18-2020INFLOW (KAF)445285
10BFEI1KOOTENAI-AT BONNERS FERRY02-18-2020STAGE (FT)MMM
11BFTI1SNAKE-NEAR BLACKFOOT02-18-2020DISCHARGE (KAF)23461606146
12BIGI1BOISE-AT GLENWOOD BRIDGE02-18-2020DISCHARGE (KAF)352348101
13BITM8BITTERROOT-NEAR MISSOULA02-18-2020DISCHARGE (KAF)956918104
14BONM8BLACKFOOT-NEAR BONNER02-18-2020DISCHARGE (KAF)733615119
15BONO3COLUMBIA-BONNEVILLE DAM02-18-2020INFLOW (KAF)5797055806104
16BRNI1SNAKE-BROWNLEE DAM02-18-2020INFLOW (KAF)4848576684
17BUDW1BUMPING-BUMPING LAKE DAM02-18-2020INFLOW (KAF)11992129
18BULO3BULLY CREEK-BULLY CREEK DAM02-18-2020INFLOW (KAF)128146
19CABI1CLARK FORK-CABINET GORGE DAM02-18-2020INFLOW (KAF)7268766195
20CFMM8FLATHEAD-AT COLUMBIA FALLS02-18-2020DISCHARGE (KAF)37703144120
21CHDW1CHELAN-LAKE CHELAN DAM02-18-2020INFLOW (KAF)814685119
22CHEI1FALL RIVER-NEAR CHESTER02-18-2020DISCHARGE (KAF)318281113
23CHJW1COLUMBIA-CHIEF JOSEPH DAM02-18-2020INFLOW (KAF)3172427500115
24CIBW1COLUMBIA-AT INTL BOUNDARY02-18-2020DISCHARGE (KAF)23924MM
25CLFW1NACHES-NEAR CLIFFDEL02-18-2020DISCHARGE (KAF)399314127
26CLUW1CLE ELUM-CLE ELUM LAKE02-18-2020INFLOW (KAF)355309115
27COEI1COEUR D ALENE-COEUR D ALENE LAKE02-18-2020INFLOW (KAF)29732805106
28CSDI1NF PAYETTE-CASCADE DAM02-18-2020INFLOW (KAF)42144096
29DEDI1DEADWOOD-NEAR LOWMAN02-18-2020INFLOW (KAF)9910396
30DLGM8CLARK FORK-AT DEER LODGE02-18-2020DISCHARGE (KAF)8181100
31DRMM8CLARK FORK-NR DRUMMOND02-18-2020DISCHARGE (KAF)279MM
32DWRI1NF CLEARWATER-DWORSHAK DAM02-18-2020INFLOW (KAF)27912527110
33EASW1YAKIMA-AT EASTON02-18-2020DISCHARGE (KAF)127100127
34EMMI1PAYETTE-NEAR EMMETT02-18-2020DISCHARGE (KAF)842109577
35FCFM8NF FLATHEAD-NEAR COLUMBIA FALLS02-18-2020DISCHARGE (KAF)12631135111
36GCDW1COLUMBIA-GRAND COULEE DAM02-18-2020INFLOW (KAF)291812985698
37GIBO3UMATILLA-NEAR GIBBON02-18-2020DISCHARGE (KAF)11783140
38HALI1BIG WOOD-AT HAILEY02-18-2020DISCHARGE (KAF)12115877
39HEII1SNAKE-NEAR HEISE02-18-2020DISCHARGE (KAF)26981861145
40HHWM8SF FLATHEAD-HUNGRY HORSE DAM02-18-2020INFLOW (KAF)16581478112
41HODO3HOOD-NEAR TUCKER BRIDGE02-18-2020DISCHARGE (KAF)27027499
42HOPI1PEND OREILLE-PEND OREILLE LAKE NR HOPE02-18-2020LAKE ELEVATION (FT)MMM
43HOTI1BRUNEAU-NEAR HOT SPRINGS02-18-2020DISCHARGE (KAF)185164113
44HWRI1BIG LOST-AT HOWELL RANCH NEAR CHILLY02-18-2020DISCHARGE (KAF)809683
45IHDW1SNAKE-ICE HARBOR DAM02-18-2020INFLOW (KAF)174431867793
46IPDI1HENRYS FORK-ISLAND PARK DAM02-18-2020INFLOW (KAF)194176110
47JDAO3COLUMBIA-JOHN DAY DAM02-18-2020INFLOW (KAF)5651155399102
48JKSW4SNAKE-NEAR JACKSON02-18-2020DISCHARGE (KAF)1170932126
49JLKW4SNAKE-JACKSON LAKE AT DAM02-18-2020INFLOW (KAF)545514106
50KADW1KACHESS-KACHESS DAM02-18-2020INFLOW (KAF)11499115
51KEDW1YAKIMA-KEECHELUS LAKE02-18-2020INFLOW (KAF)124104119
52KERM8FLATHEAD-KERR DAM02-18-2020INFLOW (KAF)43463990109
53KIOW1YAKIMA-AT KIONA02-18-2020DISCHARGE (KAF)10831023106
54LAUW1KETTLE-AT LAURIER02-18-2020DISCHARGE (KAF)19051417134
55LEOI1KOOTENAI-AT LEONIA02-18-2020DISCHARGE (KAF)2924367480
56LGDW1SNAKE-LOWER GRANITE DAM02-18-2020INFLOW (KAF)172671856493
57LGSW1SNAKE-LITTLE GOOSE DAM02-18-2020INFLOW (KAF)172671860293
58LLKW1SPOKANE-AT LONGLAKE02-18-2020INFLOW (KAF)3171338194
59LMNW1SNAKE-LOWER MONUMENTAL DAM02-18-2020INFLOW (KAF)174431881293
60LUCI1BOISE-LUCKY PEAK DAM02-18-2020INFLOW (KAF)991MM
61LWRI1LITTLE WOOD-LITTLE WOOD DAM02-18-2020INFLOW (KAF)386756
62LYDM8KOOTENAI-LIBBY DAM02-18-2020INFLOW (KAF)36233559102
63MACI1BIG LOST-MACKAY RESERVOIR NEAR MACKAY02-18-2020INFLOW (KAF)729775
64MAGI1BIG WOOD-MAGIC DAM02-18-2020INFLOW (KAF)11920658
65MCDW1COLUMBIA-MCNARY DAM02-18-2020INFLOW (KAF)5397352823102
66MILI1SNAKE-AT MILNER02-18-2020DISCHARGE (KAF)54664784
67MODO3DESCHUTES-AT MOODY NR BIGGS02-18-2020DISCHARGE (KAF)1394153891
68MONO3NF JOHN DAY-AT MONUMENT02-18-2020DISCHARGE (KAF)697625112
69MYKO3MCKAY CREEK-NEAR PILOT ROCK02-18-2020DISCHARGE (KAF)5936164
70NACW1NACHES-NEAR NACHES02-18-2020DISCHARGE (KAF)600400150
71NOXM8CLARK FORK-NOXON RAPIDS DAM02-18-2020INFLOW (KAF)6581730590
72ORFI1CLEARWATER-AT OROFINO02-18-2020DISCHARGE (KAF)46904028116
73OWYO3OWYHEE-OWYHEE DAM02-18-2020INFLOW (KAF)447361124
74PARI1BOISE-NEAR PARMA02-18-2020DISCHARGE (KAF)39241894
75PARW1YAKIMA-NEAR PARKER02-18-2020DISCHARGE (KAF)829645129
76PATW1METHOW-NEAR PATEROS02-18-2020DISCHARGE (KAF)676621109
77PDTO3UMATILLA-AT PENDLETON02-18-2020DISCHARGE (KAF)274188146
78PESW1WENATCHEE-AT PESHASTIN02-18-2020DISCHARGE (KAF)11331054107
79PIHI1PORTNEUF-AT POCATELLO02-18-2020DISCHARGE (KAF)8510185
80PITW1KLICKITAT-NEAR PITT02-18-2020DISCHARGE (KAF)48853092
81PLDI1SF SNAKE-PALISADES DAM02-18-2020INFLOW (KAF)22161907116
82PRTI1PRIEST-NEAR PRIEST RIVER02-18-2020DISCHARGE (KAF)809697116
83PRWW1COLUMBIA-PRIEST RAPIDS DAM02-18-2020INFLOW (KAF)3530632011110
84RCCM8ROCK CREEK-NEAR CLINTON02-18-2020DISCHARGE (KAF)203184110
85REXI1HENRYS FORK-AT REXBURG02-18-2020DISCHARGE (KAF)789693114
86RIDI1WILLOW CREEK-RIRIE DAM02-18-2020INFLOW (KAF)6443149
87RILW1TIETON-RIMROCK LAKE NEAR RIMROCK02-18-2020INFLOW (KAF)174153113
88RRHW1COLUMBIA-ROCKY REACH DAM02-18-2020INFLOW (KAF)3420029776115
89SATI1ST MARIES-NEAR SANTA02-18-2020DISCHARGE (KAF)163151108
90SERO3JOHN DAY-AT SERVICE CK02-18-2020DISCHARGE (KAF)953901106
91SHYI1SNAKE-NEAR SHELLEY02-18-2020DISCHARGE (KAF)26691875142
92SIFI1SNAKE-AB EAGLE ROCK NR IDAHO FALLS02-18-2020DISCHARGE (KAF)27881885148
93SJMI1ST JOE-AT ST MARIES02-18-2020STAGE (FT)MMM
94SNAI1SNAKE-AT BLACKFOOT02-18-2020DISCHARGE (KAF)23791624146
95SPDI1CLEARWATER-AT SPALDING02-18-2020DISCHARGE (KAF)68056310108
96SPOW1SPOKANE-AT SPOKANE02-18-2020DISCHARGE (KAF)2828MM
97SRGM8CLARK FORK-AT ST REGIS02-18-2020DISCHARGE (KAF)2744281098
98STRM8ST. REGIS-NEAR ST. REGIS02-18-2020DISCHARGE (KAF)21623393
99SWAI1SNAKE-BELOW SWAN FALLS02-18-2020DISCHARGE (KAF)2288267985
100TCHW1WALLA WALLA-NEAR TOUCHET02-18-2020DISCHARGE (KAF)271193141
101TDAO3COLUMBIA-THE DALLES DAM02-18-2020INFLOW (KAF)5689253399107
102TEAI1TETON-NEAR ST. ANTHONY02-18-2020DISCHARGE (KAF)306246124
103TNAW1TEANAWAY-BELOW FORKS02-18-2020DISCHARGE (KAF)157132119
104TONW1OKANOGAN-NEAR TONASKET02-18-2020DISCHARGE (KAF)12081121108
105TRYO3GRANDE RONDE-TROY02-18-2020DISCHARGE (KAF)17221221141
106UMAO3UMATILLA-NEAR UMATILLA02-18-2020DISCHARGE (KAF)291149196
107UMTW1YAKIMA-AT UMTANUM02-18-2020DISCHARGE (KAF)697624112
108UNDW1WHITE SALMON-NEAR UNDERWOOD02-18-2020DISCHARGE (KAF)33835795
109WANW1COLUMBIA-WANAPUM DAM02-18-2020INFLOW (KAF)3531331503112
110WEII1SNAKE-AT WEISER02-18-2020DISCHARGE (KAF)4337533281
111WELW1COLUMBIA-WELLS DAM02-18-2020INFLOW (KAF)3358529314115
112WGCM8MF FLATHEAD-NEAR WEST GLACIER02-18-2020DISCHARGE (KAF)12571103114
113WHBI1SALMON-AT WHITEBIRD02-18-2020DISCHARGE (KAF)3710428487
114WRMO3MALHEUR-WARM SPRINGS DAM02-18-2020INFLOW (KAF)7971110
115WSRI1WEISER-NEAR WEISER02-18-2020DISCHARGE (KAF)451436103